Regional Weather Roundup
Issued by NWS

Home | Current Version | Previous Version | Graphics & Text | Print | Product List | Glossary On
Versions: 1 2 3 4 5 6 7 8 9 10 11 12 13 14 15 16 17 18 19 20 21 22 23 24 25 26 27 28 29 30 31 32 33 34 35 36 37 38 39 40 41 42 43 44 45 46 47 48 49 50
000
ASUS43 KBIS 302210
RWRND

NORTH DAKOTA REGIONAL WEATHER ROUNDUP
NATIONAL WEATHER SERVICE BISMARCK ND
500 PM CDT TUE JUN 30 2015

NOTE: "FAIR" INDICATES FEW OR NO CLOUDS BELOW 12,000 FEET WITH NO
SIGNIFICANT WEATHER AND/OR OBSTRUCTIONS TO VISIBILITY.


NDZ001>003-009>011-017-302300-
NORTHWEST NORTH DAKOTA

CITY           SKY/WX    TMP DP  RH WIND       PRES   REMARKS
WILLISTON      PTSUNNY   79  57  46 E17G24    29.87F HAZE
MINOT          CLOUDY    68  63  84 CALM      29.90F HAZE
$$

NDZ018>021-031>035-040>046-302300-
SOUTHWEST NORTH DAKOTA

CITY           SKY/WX    TMP DP  RH WIND       PRES   REMARKS
BISMARCK       LGT RAIN  73  65  75 N9        29.94R
DICKINSON      PTSUNNY   76  65  68 SE12      29.88S
GARRISON         N/A     69  65  86 NE6       29.90F
HETTINGER ARPT MOSUNNY   77  65  66 SE14      29.89F
$$

NDZ004>008-012>016-024-026-027-054-302300-
NORTHEAST NORTH DAKOTA

CITY           SKY/WX    TMP DP  RH WIND       PRES   REMARKS
GRAND FORKS    CLOUDY    75  55  49 SE3       29.91S
GRND FRKS AFB  PTSUNNY   73  59  60 SE3       29.92S
DEVILS LAKE    CLOUDY    70  59  68 SE7       29.93F
$$

NDZ022-023-025-028>030-036>039-047>053-302300-
SOUTHEAST NORTH DAKOTA

CITY           SKY/WX    TMP DP  RH WIND       PRES   REMARKS
FARGO          CLOUDY    75  57  53 CALM      29.91R
JAMESTOWN      PTSUNNY   73  61  65 SE10      29.91S
$$



USA.gov is the U.S. government's official web portal to all federal, state and local government web resources and services.